Location: *
(51.5000°N, 0.1100°W)
Time: 20:59:48
(UTC+00:00)

Nadezhda 1 Rocket - Pass Details

Date: 25 May 2024
Orbit: 941 x 1004 km, 83.0° (Epoch: 23 June)

Event Time Altitude Azimuth Distance (km) Brightness Sun altitude
Rises 01:53:08 0° 346° (NNW) 3,745 7.9 -13.2°
Reaches altitude 10° 01:55:46 10° 341° (NNW) 2,791 7.0 -13.0°
Maximum altitude 02:01:50 46° 271° (W) 1,320 4.5 -12.5°
Enters shadow 02:06:41 16° 204° (SSW) 2,363 5.4 -12.1°
